Home   Weather   Melhus   Past weeks

Flag for Norway Past Weather in Melhus, Norway — Yesterday and Last 2 Weeks

Now
45 °F

Sprinkles. Partly cloudy.


Feels Like: 35 °F
Forecast: 32 / 41 °F
Wind: 30 mph from West

Location: Trondheim / Vaernes

Current Time: Jan 19, 2017 at 10:11:51 am

Latest Report: Jan 19, 2017 at 9:20 am


Visibility: N/A

Pressure: 29.95 "Hg

Humidity: 76%

Dew Point: 37 °F

Location of MelhusLocation

Past Weather in Melhus — Graph

°F

Melhus Temperature Yesterday

Maximum temperature yesterday: 48 °F (at 3:20 pm)
Minimum temperature yesterday: 34 °F (at 12:50 am)
Average temperature yesterday: 42 °F

High & Low Weather Summary for the Past Weeks

 TemperatureHumidityPressure
High48 °F (Jan 18, 3:20 pm)100% (Jan 11, 9:50 pm)30.48 "Hg (Jan 11, 9:50 pm)
Low3 °F (Jan 4, 8:20 pm)47% (Jan 6, 10:20 am)28.59 "Hg (Jan 11, 1:50 pm)
Average33 °F81%29.73 "Hg
* Reported Jan 4 8:20 am — Jan 19 8:50 am, Melhus, Weather by CustomWeather, © 2017

Note: Actual official high and low records may vary slightly from our data, if they occured in-between our weather recording intervals... More about our weather records

Advertising

Melhus Weather History for the Previous 24 Hours

Scroll right to see more
 ConditionsComfort  
Time TempWeatherWind HumidityBarometerVisibility
8:50 am
Thu, Jan 19
45 °FScattered showers. Passing clouds.28 mph76%29.92 "HgN/A
8:20 am43 °FLight rain. Passing clouds.14 mph76%29.95 "HgN/A
7:50 am45 °FPassing clouds.12 mph71%29.95 "HgN/A
7:20 am45 °FScattered showers. Passing clouds.15 mph66%29.95 "HgN/A
6:50 am46 °FPassing clouds.18 mph62%29.95 "HgN/A
6:20 am45 °FPartly cloudy.20 mph66%29.98 "HgN/A
5:50 am45 °FPartly cloudy.16 mph66%29.98 "HgN/A
4:50 am43 °FPartly cloudy.16 mph71%30.01 "HgN/A
3:50 am45 °FPassing clouds.23 mph66%30.04 "HgN/A
2:50 am45 °FPassing clouds.9 mph66%30.04 "HgN/A
1:50 am43 °FPartly cloudy.18 mph71%30.04 "HgN/A
12:50 am43 °FPassing clouds.15 mph71%30.04 "HgN/A
12:20 am43 °FPassing clouds.20 mph71%30.07 "HgN/A
11:50 pm
Wed, Jan 18
43 °FPassing clouds.24 mph71%30.07 "HgN/A
11:20 pm45 °FPartly cloudy.25 mph66%30.07 "HgN/A
10:50 pm45 °FPartly cloudy.30 mph66%30.07 "HgN/A
10:20 pm43 °FPassing clouds.25 mph76%30.07 "HgN/A
9:50 pm45 °FScattered showers. Partly cloudy.18 mph71%30.04 "HgN/A
9:20 pm43 °FMostly cloudy.18 mph81%30.04 "HgN/A
8:50 pm43 °FPartly cloudy.15 mph87%30.04 "Hg4 mi
8:20 pm43 °FLight rain. Partly cloudy.21 mph87%30.04 "Hg4 mi
7:50 pm43 °FRain. Partly cloudy.28 mph87%30.01 "Hg2 mi
7:20 pm43 °FRain showers. Partly cloudy.24 mph87%30.01 "HgN/A
6:50 pm43 °FRain showers. Mostly cloudy.14 mph93%30.01 "HgN/A
6:20 pm46 °FDrizzle. Mostly cloudy.17 mph82%29.95 "HgN/A
5:50 pm46 °FDrizzle. Mostly cloudy.21 mph76%29.95 "HgN/A
5:20 pm46 °FLight rain. Mostly cloudy.18 mph71%29.95 "HgN/A
4:50 pm46 °FScattered showers. Overcast.20 mph76%29.95 "HgN/A
4:20 pm46 °FScattered showers. Overcast.18 mph71%29.95 "HgN/A
3:50 pm46 °FScattered showers. Overcast.21 mph71%29.98 "HgN/A
3:20 pm48 °FScattered showers. Overcast.20 mph66%29.95 "HgN/A
2:50 pm46 °FScattered showers. Overcast.20 mph71%29.98 "HgN/A
2:20 pm46 °FScattered showers. Partly sunny.16 mph66%29.98 "HgN/A
1:50 pm39 °FScattered showers. Partly sunny.6 mph81%29.98 "HgN/A
1:20 pm41 °FPartly sunny.3 mph76%29.98 "HgN/A
12:50 pm45 °FPartly sunny.5 mph71%30.01 "HgN/A
12:20 pm45 °FScattered showers. Partly sunny.3 mph71%30.01 "HgN/A
11:50 am45 °FPartly sunny.6 mph71%30.01 "HgN/A
11:20 am45 °FPartly sunny.12 mph71%30.04 "HgN/A
10:50 am45 °FPartly sunny.10 mph71%30.04 "HgN/A
10:20 am45 °FPartly sunny.12 mph71%30.04 "HgN/A
Weather by CustomWeather, © 2017

See weather overviewHow to use our weather pages